www.pogodaiklimat.ru

Погода и климат >> Архив погоды >> Хорватия >> Мали-Лошинь


ПОГОДА в Мали-Лошине

  • Прогноз погоды в Мали-Лошине
  • Монитор погоды в Мали-Лошине

АРХИВ ПОГОДЫ в Мали-Лошине

Время (UTC), дата Ветер
(напр.,м/с)
 
Видим.   Явления Облачность Т
(С)
Тd
(С)
f
(%)
Тe
(С)
Тes
(С)
Комфортность P
(гПа)
Po
(гПа)
Тmin
(С)
Tmax
(С)
R
(мм)
R24
(мм)
S
(см)
04 14.05 СВ 6 н/о н/о +12.4 +5.1 61 +10 +10 1015.6 1009.2
05 14.05 С 5 н/о н/о +12.4 +3.9 56 +10 +10 1015.7 1009.3
06 14.05 СВ 6 12 км 9/8 1000 м
[Sc As trans]
+12.8 +4.3 56 +11 +11 1016.2 1009.8 +11.3
07 14.05 СВ 6 12 км 9/8 1000 м
[Sc As trans]
+13.1 +4.2 55 +11 +11 1016.4 1010.0
08 14.05 СВ 6 12 км 9/8 1000 м
[Cu Sc As trans]
+12.9 +4.0 55 +11 +11 1016.5 1010.1
09 14.05 СВ 6 12 км 9/8 1000 м
[Cu Sc As trans]
+13.0 +3.4 52 +11 +12 1016.5 1010.1
10 14.05 С 6 12 км 8/6 1000 м
[Cu Sc Ac As]
+13.1 +4.0 54 +11 +13 1016.4 1010.0
11 14.05 СВ 6 15 км 8/4 1000 м
[Cu Sc Ac As]
+13.5 +5.2 57 +11 +14 1016.3 1009.9
12 14.05 С 6 15 км 8/5 1000 м
[Cu Sc Ac As]
+13.0 +4.1 55 +11 +13 1016.1 1009.7
13 14.05 С 8 15 км 8/5 1000 м
[Cu Sc Ac As]
+12.8 +3.4 53 +10 +11 1016.2 1009.8
14 14.05 С 9 н/о н/о +11.6 +3.2 56 +8 +8 1016.3 1009.9
15 14.05 С 7 н/о н/о +11.3 +3.4 58 +8 +8 1015.9 1009.5
16 14.05 С 7 н/о н/о +11.1 +2.7 56 +8 +8 1015.8 1009.4
17 14.05 С 6 н/о н/о +11.1 +3.0 57 +8 +8 1015.6 1009.2
18 14.05 С 6 25 км 8/4 1000 м
[Cu Sc As trans]
+11.1 +3.2 58 +8 +8 1015.7 1009.3 +14.1
19 14.05 С 6 25 км 8/4 1000 м
[Cu Sc As trans]
+10.8 +3.3 60 +8 +8 1015.8 1009.4
20 14.05 С 4 20 км 9/8 1000 м
[Sc As trans]
+10.9 +3.4 60 +9 +9 1016.0 1009.6
21 14.05 С 4 н/о н/о +10.7 +3.3 60 +9 +9 1015.8 1009.3
00 15.05 С 2 н/о н/о +10.0 +4.0 66 +9 +9 1014.0 1007.5
03 15.05 СЗ 2 н/о н/о +9.4 +4.5 71 +8 +8 1012.7 1006.2
04 15.05 СЗ 3 н/о н/о +9.0 +5.2 77 +7 +7 1012.9 1006.4
05 15.05 З 1 н/о н/о +9.3 +6.3 82 +9 +9 1013.0 1006.5
06 15.05 З 1 13 км 9/9 1000 м
[Sc]
+9.5 +5.7 77 +9 +9 1013.1 1006.7 +9.1 1
07 15.05 СЗ 1 15 км 8/8 1000 м
[Sc]
+10.3 +5.5 72 +10 +12 1013.1 1006.7
08 15.05 С 2 15 км 8/5 1000 м
[Cu Sc Ac As]
+11.7 +4.4 61 +11 +14 1012.8 1006.4
09 15.05 С 2 15 км 8/5 1000 м
[Cu Sc Ac As]
+13.0 +3.6 53 +13 +17 1013.1 1006.7
10 15.05 С 2 20 км 6/3 1000 м
[Cu Sc Ac As Ci fib]
+13.5 +3.3 50 +13 +23 1013.2 1006.8
11 15.05 СВ 2 30 км 6/3 1000 м
[Cu Sc Ac As Ci fib]
+13.8 +4.4 53 +13 +24 опасность
простуды
1013.0 1006.6
12 15.05 В 2 30 км 5/3 1000 м
[Cu Sc As trans Ci sp]
+15.1 +5.7 53 +15 +26 опасность
простуды
1013.1 1006.8
13 15.05 СВ 2 30 км 6/3 1000 м
[Cu Sc As trans Ci sp]
+15.0 +5.5 53 +15 +23 1013.2 1006.9
14 15.05 С 3 н/о н/о +15.3 +5.3 51
15 15.05 СВ 1 н/о н/о +15.7 +4.5 47 +17 +17 1012.9 1006.6
16 15.05 С 2 н/о н/о +15.2 +4.3 48 +15 +15 1012.7 1006.4
18 15.05 С 3 25 км 8/3 1000 м
[Cu Sc Ac As Ci sp]
+13.0 +6.5 65 +12 +12 1013.0 1006.6 +16.0
19 15.05 С 2 25 км 6/3 1000 м
[Cu Sc Ac As Ci sp]
+12.3 +6.9 70 +11 +11 1013.0 1006.6
20 15.05 СВ 1 25 км 5/3 1000 м
[Cu Sc As trans]
+11.9 +7.3 73 +12 +12 1013.4 1007.0
04 16.05 СЗ 2 н/о н/о +11.7 +6.9 72 +11 +11 1011.6 1005.2
05 16.05 СЗ 2 н/о н/о +12.1 +7.3 72 +11 +11 1011.7 1005.3
06 16.05 ЮЗ 1 30 км 8/3 1000 м
[Sc Ac As Cc]
+13.0 +8.4 74 +13 +15 1012.1 1005.7 +11.0
07 16.05 Ю 2 30 км 8/3 1000 м
[Cu Sc Ac As]
+14.4 +8.7 69 +14 +17 1012.2 1005.9
08 16.05 СВ 2 30 км 5/1 1000 м
[Cu hum Ac As]
+15.6 +7.7 59 +16 +23 1012.2 1005.9
09 16.05 СВ 2 30 км 5/1 1000 м
[Cu hum Ac As]
+15.8 +6.8 55 +16 +25 1012.3 1006.0
10 16.05 ЮЗ 2 30 км 5/3 1000 м
[Cu hum Ac As]
+17.2 +6.3 49 +18 +27 1012.0 1005.7
11 16.05 ЮЗ 3 30 км 3/1 1000 м
[Cu hum Ac trans]
+17.6 +6.4 48 +18 +30 опасность
простуды
1012.0 1005.7
12 16.05 ЮЗ 4 30 км 3/1 1000 м
[Cu med, cong Ac trans]
+18.4 +7.5 49 +19 +28 1011.7 1005.5
13 16.05 ЮЗ 5 30 км 1/1 1000 м
[Cu med, cong]
+18.0 +8.7 55 +18 +25 1011.4 1005.2
14 16.05 н/о н/о +17.5 +6.4 48 1011.1 1004.8
15 16.05 СВ 2 н/о н/о +18.1 +7.6 50 +19 +19 1010.9 1004.6
16 16.05 СЗ 2 н/о н/о +18.4 +7.9 50 +19 +19 1010.7 1004.4
17 16.05 СЗ 2 н/о н/о +17.3 +7.7 53 +18 +18 1010.7 1004.4
18 16.05 СЗ 2 30 км 1/0
[Ac trans]
+15.6 +8.7 63 +16 +16 1011.2 1004.9 +18.9
19 16.05 СЗ 2 25 км 1/0
[Ac trans]
+14.4 +9.1 70 +14 +14 1011.2 1004.9
20 16.05 С 2 25 км ясно +13.7 +8.5 71 +13 +13 1011.3 1005.0
21 16.05 С 2 н/о н/о +13.3 +8.4 72 +13 +13 1011.5 1005.1
00 17.05 С 3 н/о н/о +12.3 +8.4 77 +11 +11 1011.1 1004.7
03 17.05 н/о н/о +11.6 +8.7 82 1010.5 1004.1
04 17.05 С 2 н/о н/о +11.8 +9.4 85 +11 +11 1010.4 1004.0
05 17.05 СВ 1 н/о н/о +13.4 +11.3 87 +14 +14 1010.8 1004.4
06 17.05 В 2 25 км 3/3 1000 м
[Cu med, cong]
+14.8 +12.0 83 +14 +17 1010.8 1004.5 +11.5
07 17.05 ЮВ 2 25 км 3/3 1000 м
[Cu med, cong]
+16.8 +11.3 70 +17 +22 1011.1 1004.8
08 17.05 ЮВ 3 25 км 4/3 1000 м
[Cu med, cong Ci fib]
+16.5 +10.2 66 +16 +23 1011.2 1004.9
09 17.05 Ю 3 25 км 4/3 1000 м
[Cu med, cong Ci fib]
+18.1 +10.9 63 +18 +27 1011.1 1004.9
10 17.05 Ю 4 25 км 3/3 1000 м
[Cu med, cong Ci fib]
+18.5 +10.4 59 +19 +27 1011.1 1004.9
11 17.05 Ю 4 30 км 4/3 1000 м
[Cu med, cong Ci]
+18.9 +9.4 54 +19 +28 1011.1 1004.9
12 17.05 Ю 3 35 км 5/3 1000 м
[Cu med, cong Ci sp]
+19.6 +7.7 46 +21 +30 комфорт 1011.1 1004.9
13 17.05 З 1 35 км 6/3 1000 м
[Cu med, cong Ci sp]
+19.1 +7.7 48 +21 +32 комфорт 1010.8 1004.6
14 17.05 СВ 2 н/о н/о +18.6 +9.4 55 +20 +20 1010.4 1004.2
15 17.05 С 2 н/о н/о +18.0 +10.2 60 +19 +19 1010.1 1003.8
16 17.05 СВ 1 н/о н/о +18.3 +8.1 51 +20 +20 1009.6 1003.4
17 17.05 СВ 1 н/о н/о +18.3 +8.6 53 +20 +20 1009.1 1002.9
18 17.05 СВ 2 30 км 4/1 1000 м
[Cu med, cong Ac As Ci fib]
+16.4 +11.2 71 +17 +17 1009.2 1002.9 +20.2
19 17.05 СВ 2 30 км 4/1 1000 м
[Cu hum Ac As Ci fib]
+15.4 +10.9 75 +15 +15 1009.2 1002.9
20 17.05 С 1 30 км 4/1 1000 м
[Cu hum Ac As]
+15.0 +10.4 74 +16 +16 1009.5 1003.2
21 17.05 В 1 н/о н/о +14.4 +8.6 68 +15 +15 1009.6 1003.3
00 18.05 В 1 н/о н/о +14.4 +10.7 78 +15 +15 1008.5 1002.2
03 18.05 В 2 н/о н/о +14.5 +12.1 86 +14 +14 1007.6 1001.3
04 18.05 В 1 н/о н/о +14.3 +11.3 82 +15 +15 1007.4 1001.1
05 18.05 СВ 2 н/о н/о +15.0 +12.2 83
06 18.05 СВ 3 20 км 5/3 1000 м
[Cu Sc Ac As]
+15.8 +11.3 75 +15 +17 1007.3 1001.0 +14.1
07 18.05 СВ 4 20 км 8/4 1000 м
[Cu Sc Ac As]
+16.7 +12.1 74 +16 +18 1007.1 1000.9
08 18.05 В 2 20 км 9/9 1000 м
[Cu Sc]
+16.8 +11.3 70 +17 +18 1007.0 1000.8
09 18.05 В 5 20 км 8/5 1000 м
[Cu Sc Ac As]
+20.0 +11.0 56 +21 +24 комфорт 1006.7 1000.5
10 18.05 ЮВ 6 13 км 9/8 1000 м
[Sc Ac As]
+19.8 +12.3 62 +21 +22 комфорт 1006.8 1000.6
11 18.05 ЮВ 6 15 км 8/6 1000 м
[Sc Ac As]
+20.8 +13.3 62 +23 +25 комфорт 1006.7 1000.6
12 18.05 ЮВ 7 9000 м слаб. дождь 10/10 1000 м
[Sc]
+16.5 +13.8 84 +15 +15 1006.8 1000.6 1
13 18.05 ЮВ 6 15 км в посл. час дождь 8/8 1000 м
[Sc]
+17.6 +12.8 73 +17 +18 1006.8 1000.6
14 18.05 ЮВ 8 н/о н/о +17.9 +12.0 68 +17 +17 1006.4 1000.2
15 18.05 ЮВ 6 н/о н/о +17.3 +12.3 72 +16 +16 1006.7 1000.4
16 18.05 В 7 н/о н/о +16.3 +11.5 73 +15 +15 1006.6 1000.3
17 18.05 В 6 н/о н/о +15.5 +12.1 80 +14 +14 1006.8 1000.5
18 18.05 В 3 12 км 8/8 1000 м
[Sc Ac As]
+14.8 +12.6 87 +14 +14 1007.2 1000.9 +21.2 2
19 18.05 В 3 12 км 8/8 1000 м
[Sc]
+14.9 +12.7 87 +14 +14 1007.5 1001.2
20 18.05 В 3 12 км 9/9 1000 м
[Sc]
+15.0 +12.8 87 +14 +14 1007.6 1001.3
21 18.05 В 2 н/о н/о +15.1 +12.1 82 +15 +15 1007.6 1001.3
00 19.05 В 4 н/о н/о +14.5 +11.3 81 +13 +13 1006.6 1000.3
03 19.05 н/о +11.1 1005.4 999.1
04 19.05 В 2 н/о н/о +14.8 +12.0 83 +14 +14 1005.5 999.2
05 19.05 В 3 н/о н/о +15.5 +11.9 79 +15 +15 1005.2 998.9
06 19.05 В 3 20 км 9/8 1000 м
[Frnb Ac trans]
+15.6 +11.8 78 +15 +15 1005.1 998.8 +14.3 0.3
07 19.05 В 3 20 км 8/4 1000 м
[Frnb Ac trans Ci fib]
+17.6 +12.6 72 +18 +20 1004.8 998.6
08 19.05 СВ 2 20 км 9/9 1000 м
[Frnb]
+16.6 +12.6 77 +17 +18 1004.8 998.6
09 19.05 В 2 15 км 9/9 1000 м
[Sc]
+17.7 +12.7 73 +18 +20 1004.8 998.6
10 19.05 ЮВ 3 15 км 9/9 1000 м
[Sc]
+18.3 +12.5 69 +19 +20 1004.6 998.4
11 19.05 Ю 4 13 км 10/10 1000 м
[Frnb]
+17.6 +13.3 76 +17 +17 1004.4 998.2
12 19.05 Ю 3 13 км 9/9 1000 м
[Frnb]
+18.5 +13.6 73 +19 +21 1004.1 997.9
13 19.05 Ю 5 12 км 10/10 1000 м
[Frnb]
+17.8 +13.3 75 +17 +17 1004.2 998.0
14 19.05 ЮВ 2 н/о н/о +16.5 +13.7 84 +17 +17 1004.4 998.1
15 19.05 В 2 н/о н/о +16.6 +13.6 82 +17 +17 1004.5 998.2
16 19.05 З 1 н/о н/о +15.5 +13.2 86 +16 +16 1004.7 998.4
17 19.05 С 1 н/о н/о +14.5 +12.9 90 +15 +15 1004.6 998.3
18 19.05 В 2 12 км 8/6 1000 м
[Cu Sc Ac As]
+14.4 +13.0 91 +14 +14 1004.4 998.1 +19.0 17
19 19.05 В 3 12 км 8/6 1000 м
[Cu Sc Ac As]
+14.2 +12.8 91 +13 +13 1004.3 998.0
20 19.05 В 2 12 км 8/6 1000 м
[Sc Ac As]
+13.9 +12.2 89 +13 +13 1004.5 998.2
21 19.05 Ю 3 н/о н/о +14.2 +12.8 91 +13 +13 1004.8 998.5
00 20.05 ЮЗ 5 н/о н/о +13.2 +11.5 89 +11 +11 1004.8 998.5
03 20.05 ЮЗ 4 н/о н/о +14.0 +13.0 94 +12 +12 1005.1 998.8
04 20.05 Ю 4 н/о н/о +13.7 +12.5 92 +12 +12 1005.0 998.7
05 20.05 Ю 4 н/о н/о +14.3 +12.2 87 +13 +13 1005.4 999.1
06 20.05 Ю 4 20 км 9/9 1000 м
[Sc]
+14.5 +11.7 83 +13 +13 1005.7 999.4 +13.2 4
07 20.05 ЮЗ 4 20 км 9/9 1000 м
[Sc]
+14.8 +11.9 83 +14 +14 1006.2 999.9
08 20.05 ЮЗ 5 20 км 8/8 1000 м
[Sc]
+15.6 +12.2 80 +14 +16 1006.6 1000.3
09 20.05 ЮЗ 6 20 км 8/8 1000 м
[Sc]
+16.6 +11.5 72 +16 +17 1007.3 1001.1
10 20.05 ЮЗ 6 20 км 8/8 1000 м
[Cu Sc]
+16.8 +11.5 71 +16 +17 1008.0 1001.8
11 20.05 Ю 4 20 км 8/6 1000 м
[Cu Sc Ac As]
+18.1 +11.8 67 +18 +21 1008.1 1001.9
12 20.05 Ю 5 25 км 5/3 1000 м
[Cu Sc Ac As Ci sp]
+19.6 +12.3 63 +21 +26 комфорт 1008.6 1002.4
13 20.05 Ю 6 25 км 5/3 1000 м
[Cu Sc As trans Ci sp]
+19.3 +12.3 64 +20 +24 1008.5 1002.3
14 20.05 ЮВ 5 н/о н/о +19.9 +13.0 64 +22 +22 комфорт 1008.2 1002.0
15 20.05 Ю 6 н/о н/о +19.0 +12.6 66 +20 +20 1008.1 1001.9
16 20.05 Ю 5 н/о н/о +18.8 +13.1 69 +19 +19 1008.1 1001.9
17 20.05 Ю 4 н/о н/о +16.8 +13.6 81 +16 +16 1008.2 1001.9
18 20.05 Ю 4 15 км 6/3 1000 м
[Cu Sc Ac As Ci fib]
+16.3 +13.5 83 +16 +16 1008.2 1001.9 +19.9
19 20.05 ЮВ 3 15 км 8/4 1000 м
[Cu Sc Ac As]
+15.7 +12.6 82 +15 +15 1008.2 1001.9
20 20.05 Ю 3 н/о н/о +15.7 +13.1 85 +15 +15 1008.7 1002.4
21 20.05 Ю 4 н/о н/о +15.5 +13.4 87 +15 +15 1008.9 1002.6
00 21.05 ЮВ 2 н/о н/о +15.6 +13.2 86 +15 +15 1009.4 1003.1

 

Местоположение метеостанции Мали-Лошинь (Хорватия): широта 44.53 долгота 14.48 высота над уровнем моря 53 м.

В архиве по умолчанию представлена погода в Мали-Лошине за последнюю неделю. Архивные данные за месяц целиком и за предыдущие месяцы, начиная с января 2011 года, Вы можете получить, выбрав интересующий диапазон дат из раскрывающегося списка и нажав кнопку "Ввод!".


*Определитесь, кто Вы:
робот инопланетянин человек

Внимание! Время в таблицах - всемирное. Для получения местного времени необходимо прибавить поправку, которая равна 1 ч.

Смотрите также архив погоды в соседних городах и на ближайших метеорологических станциях:

Погода в Рабе (Хорватия) (34 км)
Погода в Завизани (Хорватия) (51 км)
Погода в Пуле (Хорватия) (60 км)
Погода в Сене (Хорватия) (62 км)
Погода в Госпиче (Хорватия) (71 км)
Погода в Задаре (Хорватия) (74 км)
Погода в Риека аэропорту (Хорватия) (77 км)
Погода в Задар аэропорту (Хорватия) (84 км)
Погода в Риеке (Хорватия) (89 км)
Погода в Пазине (Хорватия) (89 км)

Пояснения к столбцам:

Ветер - указаны скорость ветра в м/с - средняя за 10 мин, порывы в срок и между сроками (в фигурных скобках) и направление, откуда дует ветер: С - северный, СВ - северо-восточный, В - восточный, ЮВ - юго-восточный, Ю - южный, ЮЗ - юго-западный, З - западный, СЗ - северо-западный.
Видимость - горизонтальная дальность видимости в метрах или километрах. При видимости от 1 до 10 км при отсутствии осадков обычно наблюдается дымка, при ухудшении видимости до 1 км и менее - туман. В сухую погоду видимость может ухудшаться дымом, пылью или мглою.
Явления - указаны атмосферные явления, наблюдавшиеся в срок или в последний час перед сроком; фигурными скобками обозначены явления, наблюдавшиеся между сроками (за 1-3 часа до срока); квадратными скобками обозначены град или гололедные отложения с указанием их диаметра в мм.
Облачность - указаны через наклонную черту общая и нижняя облачность в баллах и высота нижней границы облаков в метрах; квадратными скобками обозначены формы облаков: Ci - перистые, Cs - перисто-слоистые, Cc - перисто-кучевые, Ac - высококучевые, As - высокослоистые, Sc - слоисто-кучевые, Ns - слоисто-дождевые, Cu - кучевые, Cb - кучево-дождевые. Подробнее классификацию облаков см. в Атласе облаков (PDF).
T - Температура воздуха - температура, измеренная на высоте 2 м над землей.
Td - Температура точки росы - температура, при понижении до которой содержащийся в воздухе водяной пар достигнет насыщения.
f - Относительная влажность воздуха - влажноcть воздуха, измеренная на высоте 2 м над землей.
Te - Эффективная температура - температура, которую ощущает одетый по сезону человек в тени. Характеристика душности погоды. При расчете учитывается влияние влажности воздуха и скорости ветра на теплоощущения человека.
Tes - Эффективная температура на солнце - температура, которую ощущает человек, с поправкой на солнечный нагрев. Характеристика знойности погоды. Зависит от высоты солнца над горизонтом, облачности и скорости ветра. Ночью, в пасмурную погоду, а также при ветре 12 м/с и более поправка равна нулю.
P - Атмосферное давление - приведенное к уровню моря атмосферное давление.
Po - Атмосферное давление - измеренное на уровне метеостанции атмосферное давление.
Tmin - Минимальная температура - минимум температуры воздуха на высоте 2 м над землей.
Tmax - Максимальная температура - максимум температуры воздуха на высоте 2 м над землей.
R - Количество осадков - Количество выпавших осадков за период времени, мм. При наведении курсора мыши на число - период времени, за который выпало указанное количество осадков.
R24 - Количество осадков - Количество выпавших осадков за 24 часа, мм.
S - Снежный покров - Высота снежного покрова, см. При наведении курсора мыши на число - состояние снежного покрова и степень покрытия местности в баллах.